Content
SEND FEEDBACK

Daily
Averages
Monthly
Summary
United States of America

ROHNERVILLE, CALIFORNIA


Home > North America > United States > California
Elevation: 390 feet     Latitude: 40 33N     Longitude: 124 07W

WEATHER
 
SELECT A DAY
Number of Records: 57,331;   Date Range: 9/21/11 - 7/11/14
 
SHARE

PRINT THIS DATA

[ ← Previous Day ]
WEATHER ALMANAC - SEPTEMBER 8, 2013
[ Next Day → ]
[ °C ]   °F
Weather ElementAverageHighLow
Temperature61.2 °F71.6 °F (11:55 am)55.4 °F (4:55 am)
Dewpoint56.9 °F59 °F (11:55 am)53.6 °F (7:15 am)
Humidity87.1 %100 % (12:35 am)64 % (11:35 am)
Barometer29.89 in29.95 in (12:35 am)29.82 in (10:55 pm)
Wind Speed6 mph16.1 mph (5:15 pm)
Weather ElementAverage
Visibility7.7 mi
Wind DirectionSSE (167.9 °)

Weather ElementTotal
Precipitation---
Heating Degree Days1.5 (Base 65)
Growing Degree Days13.5 (Base 50)
Averaged from 71 records on September 8, 2013
WEATHER CONDITIONS BREAKOUT
WIND DIRECTION BREAKOUT
WEATHER BY HOUR - SEPTEMBER 8, 2013
[ °C ]   °F
Local TimeTemperatureDewpointHumidityBarometerVisibilityWind DirectionWind SpeedGust SpeedPrecipitationEventsConditions
12:35 AM57.2 °F57.2 °F100 %29.95 in5.0 miCalmOvercast
12:55 AM57.2 °F57.2 °F100 %29.95 in5.0 miCalmOvercast
1:15 AM57.2 °F57.2 °F100 %29.95 in4.0 miCalmOvercast
1:35 AM57.2 °F57.2 °F100 %29.95 in3.0 miCalmOvercast
1:55 AM57.2 °F57.2 °F100 %29.95 in5.0 miCalmOvercast
2:15 AM57.2 °F55.4 °F94 %29.95 in2.5 miCalmOvercast
2:35 AM57.2 °F57.2 °F100 %29.94 in2.5 miCalmOvercast
2:55 AM57.2 °F57.2 °F100 %29.94 in2.0 miCalmOvercast
3:15 AM57.2 °F57.2 °F100 %29.94 in1.8 miCalmOvercast
3:35 AM57.2 °F57.2 °F100 %29.94 in1.0 miCalmOvercast
3:55 AM57.2 °F57.2 °F100 %29.93 in1.0 miESE (120°)3.5 mphOvercast
4:15 AM57.2 °F57.2 °F100 %29.92 in0.8 miSE (130°)4.6 mphOvercast
4:35 AM57.2 °F57.2 °F100 %29.91 in0.5 miSE (140°)5.8 mphOvercast
4:55 AM55.4 °F55.4 °F100 %29.91 in0.5 miSSE (150°)5.8 mphOvercast
5:15 AM55.4 °F55.4 °F100 %29.90 in2.5 miSE (130°)9.2 mphOvercast
5:35 AM55.4 °F55.4 °F100 %29.89 in3.0 miSE (130°)10.4 mphOvercast
5:55 AM55.4 °F55.4 °F100 %29.89 in6.0 miESE (120°)10.4 mphOvercast
6:15 AM55.4 °F55.4 °F100 %29.89 in10.0 miSE (130°)9.2 mphOvercast
6:35 AM55.4 °F55.4 °F100 %29.90 in10.0 miSE (140°)5.8 mphOvercast
6:55 AM55.4 °F55.4 °F100 %29.90 in10.0 miSE (140°)5.8 mphOvercast
7:15 AM55.4 °F53.6 °F94 %29.91 in10.0 miESE (110°)5.8 mphMostly Cloudy
7:35 AM55.4 °F55.4 °F100 %29.91 in10.0 miESE (110°)3.5 mphScattered Clouds
7:55 AM57.2 °F55.4 °F94 %29.91 in10.0 miCalmScattered Clouds
8:15 AM57.2 °F55.4 °F94 %29.92 in10.0 miNorth (360°)3.5 mphPartly Cloudy
8:35 AM57.2 °F55.4 °F94 %29.92 in10.0 miCalmClear
8:55 AM59.0 °F55.4 °F88 %29.91 in10.0 miCalmClear
9:15 AM59.0 °F55.4 °F88 %29.92 in10.0 miCalmClear
9:35 AM62.6 °F55.4 °F77 %29.92 in10.0 miNNW (330°)3.5 mphClear
9:55 AM62.6 °F55.4 °F77 %29.92 in10.0 miCalmClear
10:15 AM64.4 °F55.4 °F73 %29.92 in10.0 miNorth (360°)3.5 mphClear
10:35 AM66.2 °F57.2 °F73 %29.92 in10.0 miNNW (340°)4.6 mphClear
10:55 AM66.2 °F57.2 °F73 %29.91 in10.0 miNW (320°)5.8 mphClear
11:15 AM68.0 °F57.2 °F68 %29.91 in10.0 miNW (310°)6.9 mphClear
11:35 AM69.8 °F57.2 °F64 %29.90 in10.0 miNW (310°)6.9 mphClear
11:55 AM71.6 °F59.0 °F64 %29.90 in10.0 miNW (310°)6.9 mphClear
12:15 PM71.6 °F59.0 °F64 %29.90 in10.0 miWNW (300°)10.4 mphClear
12:35 PM69.8 °F59.0 °F68 %29.90 in10.0 miNW (310°)11.5 mphClear
12:55 PM71.6 °F59.0 °F64 %29.90 in10.0 miWNW (300°)12.7 mphClear
1:15 PM71.6 °F59.0 °F64 %29.89 in10.0 miWNW (300°)12.7 mphClear
1:35 PM69.8 °F59.0 °F68 %29.90 in10.0 miWNW (290°)13.8 mphClear
1:55 PM69.8 °F59.0 °F68 %29.89 in10.0 miWNW (300°)13.8 mphClear
2:15 PM68.0 °F59.0 °F73 %29.89 in10.0 miNW (310°)13.8 mphClear
2:35 PM68.0 °F57.2 °F68 %29.89 in10.0 miNW (310°)13.8 mphClear
2:55 PM68.0 °F57.2 °F68 %29.89 in10.0 miWNW (300°)11.5 mphClear
3:15 PM68.0 °F57.2 °F68 %29.88 in10.0 miWNW (300°)11.5 mphClear
3:35 PM68.0 °F59.0 °F73 %29.88 in10.0 miWNW (300°)11.5 mphClear
3:55 PM68.0 °F57.2 °F68 %29.88 in10.0 miWNW (300°)12.7 mphClear
4:15 PM68.0 °F57.2 °F68 %29.87 in10.0 miNW (310°)12.7 mphClear
4:35 PM68.0 °F57.2 °F68 %29.87 in10.0 miNW (310°)15.0 mphClear
4:55 PM66.2 °F57.2 °F73 %29.87 in10.0 miNW (310°)13.8 mphClear
5:15 PM64.4 °F57.2 °F77 %29.87 in10.0 miNW (320°)16.1 mphClear
5:35 PM64.4 °F57.2 °F77 %29.87 in10.0 miWNW (300°)15.0 mphClear
5:55 PM64.4 °F57.2 °F77 %29.87 in10.0 miNW (310°)12.7 mphClear
6:15 PM62.6 °F57.2 °F82 %29.86 in10.0 miWNW (300°)9.2 mphClear
6:35 PM62.6 °F57.2 °F82 %29.86 in9.0 miWNW (300°)9.2 mphClear
6:55 PM60.8 °F57.2 °F88 %29.85 in9.0 miNW (310°)4.6 mphClear
7:15 PM59.0 °F57.2 °F94 %29.85 in7.0 miWNW (300°)4.6 mphClear
7:35 PM59.0 °F57.2 °F94 %29.85 in7.0 miNW (310°)4.6 mphClear
7:55 PM57.2 °F57.2 °F100 %29.85 in6.0 miCalm
8:15 PM59.0 °F57.2 °F94 %29.84 in7.0 miCalm
8:35 PM57.2 °F57.2 °F100 %29.84 in8.0 miCalm
8:55 PM59.0 °F57.2 °F94 %29.84 in8.0 miCalm
9:15 PM57.2 °F57.2 °F100 %29.84 in8.0 miCalm
9:35 PM57.2 °F57.2 °F100 %29.84 in7.0 miCalmClear
9:55 PM57.2 °F57.2 °F100 %29.84 in6.0 miCalmClear
10:15 PM57.2 °F57.2 °F100 %29.83 in5.0 miCalmClear
10:35 PM57.2 °F57.2 °F100 %29.83 in8.0 miSSE (160°)5.8 mphClear
10:55 PM57.2 °F55.4 °F94 %29.82 in7.0 miSSE (150°)6.9 mphClear
11:15 PM57.2 °F57.2 °F100 %29.82 in9.0 miSE (140°)8.1 mphClear
11:35 PM57.2 °F57.2 °F100 %29.82 in10.0 miSE (140°)9.2 mphClear
11:55 PM57.2 °F55.4 °F94 %29.82 in10.0 miSE (140°)10.4 mphClear
Hourly data recorded from KFOT, located miles away from Rohnerville, California







STORIES FROM OUR PARTNERS